NOAA 16 DEB, 41244

Orbit data source: Space-Track

NOAA 16 DEB, 41244 is space debris in SSO originally from a launch on Thu, 21 Sep 2000 UTC launched from the Air Force Western Test Range (AFWTR). Debris objects in space refer to the collection of defunct objects orbiting the Earth. Examples of debris include non-operational satellites, rocket bodies, and fragments generated from explosions, collisions, or faulty payload assembly.

Loading next visibility...
Identifier
41244, 2000-055EU
Orbit
SSO
Country
Flag of USUS
Related business
Manufacturer
Unknown
Mission
Spacecraft
Bus & Motor
Unknown
Mass
Unknown
Launch date (UTC)
2000-09-21 (26 years ago)
Launch vehicle
Unknown
Launch site
Air Force Western Test Range (AFWTR)
Object type
Payload
Rocket body
Debris
Shape & HBR
Unknown shape, 0.1 m
Radar Cross Section
Medium (>0.1 m² and <1 m²)

Expand to show TLE details & history
Last TLE update: 2 days ago

TLE from 2 days ago
0 NOAA 16 DEB
1 41244U 00055EU  26176.93109642  .00004808  00000-0  16049-2 0  9993
2 41244  99.0425 352.5277 0008800 325.2405  34.8205 14.37972862542567
Epoch: 2026-06-25T22:20Z
TLE epoch observation values (Epoch: 2026-06-25T22:20:46.730Z)
Latitude
0.00001°
Longitude
103.26611°
Altitude
762.972 km
Speed
7.476 km/s
True Right ascension
23h 30m 06s
True Declination
0° 00' 00"
Sunlit
Object was in daylight at epoch
Visualization orbit readout
Latitude
Unknown
Longitude
Unknown
Altitude
Unknown
Speed
Unknown
Apparent Right ascension
Unknown
Apparent Declination
Unknown
Sunlit
N/A
Visualization observer readout
Local Sidereal Time
23:45:24
Azimuth
Unknown
Elevation
Unknown
Doppler factor
Unknown
Orbital elements
Apogee altitude
768.639 km
Perigee altitude
756.071 km
Semi-major axis
7,140.492 km
Eccentricity
0.00088
Inclination
99.0425°
RAAN
352.5277°
Arg. of periapsis
325.2405°
True anomaly
34.87813°
Mean anomaly
34.8205°
Eccentric anomaly
34.84931°
Mean motion
3.59709 °/min
Orbital period
100.08 mins
BSTAR
0.0016049
Loading maneuver chart data...
Computing Atmospheric mass density...
Loading historical data...
Loading historical data...
Loading historical data...
Loading historical data...
Loading historical data...
Loading historical data...
Loading historical data...

Documentation

Showing up to 5 results
|